H1 CPF 2 NER 2024 11 14 9 319 01 glonass127 H2 1106403 9127 37869 2024 11 14 0 0 0 2024 11 17 23 45 0 900 1 1 0 0 0 1 H9 10 0 60628 0.00000 0 -20949928.309 -12619250.558 7225621.435 10 0 60628 900.00000 0 -21598177.125 -12910188.086 4100508.753 10 0 60628 1800.00000 0 -21939624.843 -12940077.535 895615.167 10 0 60628 2700.00000 0 -21937167.875 -12751012.403 -2326712.989 10 0 60628 3600.00000 0 -21564974.243 -12392568.073 -5503683.802 10 0 60628 4500.00000 0 -20809731.895 -11919496.722 -8573296.805 10 0 60628 5400.00000 0 -19671386.191 -11389207.498 -11475571.474 10 0 60628 6300.00000 0 -18163332.116 -10859139.968 -14153741.229 10 0 60628 7200.00000 0 -16312050.148 -10384144.119 -16555387.294 10 0 60628 8100.00000 0 -14156198.908 -10013980.409 -18633487.905 10 0 60628 9000.00000 0 -11745201.343 -9791048.525 -20347360.086 10 0 60628 9900.00000 0 -9137383.377 -9748443.705 -21663473.608 10 0 60628 10800.00000 0 -6397743.509 -9908425.261 -22556119.672 10 0 60628 11700.00000 0 -3595447.778 -10281363.873 -23007920.245 10 0 60628 12600.00000 0 -801156.433 -10865213.256 -23010167.602 10 0 60628 13500.00000 0 1915704.351 -11645528.793 -22562987.543 10 0 60628 14400.00000 0 4489610.378 -12596031.873 -21675323.681 10 0 60628 15300.00000 0 6861434.557 -13679694.930 -20364744.168 10 0 60628 16200.00000 0 8980664.842 -14850299.701 -18657076.036 10 0 60628 17100.00000 0 10807252.969 -16054400.992 -16585875.978 10 0 60628 18000.00000 0 12313018.234 -17233611.017 -14191749.767 10 0 60628 18900.00000 0 13482549.990 -18327106.108 -11521535.519 10 0 60628 19800.00000 0 14313574.241 -19274248.586 -8627368.629 10 0 60628 20700.00000 0 14816772.566 -20017212.284 -5565648.326 10 0 60628 21600.00000 0 15015064.899 -20503500.810 -2395927.526 10 0 60628 22500.00000 0 14942390.050 -20688252.877 820251.362 10 0 60628 23400.00000 0 14642038.670 -20536238.675 4020551.285 10 0 60628 24300.00000 0 14164611.511 -20023464.919 7143042.723 10 0 60628 25200.00000 0 13565690.769 -19138322.986 10127390.293 10 0 60628 26100.00000 0 12903323.389 -17882233.928 12916001.744 10 0 60628 27000.00000 0 12235422.123 -16269765.093 15455118.621 10 0 60628 27900.00000 0 11617192.591 -14328214.733 17695829.475 10 0 60628 28800.00000 0 11098692.805 -12096682.578 19594988.307 10 0 60628 29700.00000 0 10722625.480 -9624664.900 21116022.878 10 0 60628 30600.00000 0 10522453.554 -6970231.392 22229619.677 10 0 60628 31500.00000 0 10520915.908 -4197857.708 22914274.341 10 0 60628 32400.00000 0 10729004.039 -1376000.935 23156698.544 10 0 60628 33300.00000 0 11145441.804 1425484.652 22952076.481 10 0 60628 34200.00000 0 11756690.304 4137987.747 22304166.229 10 0 60628 35100.00000 0 12537478.795 6696729.959 21225243.502 10 0 60628 36000.00000 0 13451841.471 9043201.030 19735887.597 10 0 60628 36900.00000 0 14454619.252 11127340.421 17864611.694 10 0 60628 37800.00000 0 15493366.626 12909376.004 15647342.245 10 0 60628 38700.00000 0 16510586.469 14361243.798 13126754.732 10 0 60628 39600.00000 0 17446201.516 15467529.056 10351475.943 10 0 60628 40500.00000 0 18240160.420 16225888.225 7375165.628 10 0 60628 41400.00000 0 18835069.609 16646932.404 4255493.186 10 0 60628 42300.00000 0 19178739.810 16753575.240 1053027.827 10 0 60628 43200.00000 0 19226538.587 16579870.855 -2169937.045 10 0 60628 44100.00000 0 18943447.297 16169389.319 -5350602.296 10 0 60628 45000.00000 0 18305732.610 15573197.363 -8426899.828 10 0 60628 45900.00000 0 17302158.513 14847529.614 -11338722.069 10 0 60628 46800.00000 0 15934684.052 14051249.575 -14029118.245 10 0 60628 47700.00000 0 14218614.005 13243209.335 -16445431.752 10 0 60628 48600.00000 0 12182193.352 12479621.867 -18540354.047 10 0 60628 49500.00000 0 9865660.503 11811559.597 -20272872.178 10 0 60628 50400.00000 0 7319797.961 11282687.668 -21609089.418 10 0 60628 51300.00000 0 4604040.953 10927330.093 -22522901.423 10 0 60628 52200.00000 0 1784223.817 10768952.438 -22996513.615 10 0 60628 53100.00000 0 -1069940.410 10819126.356 -23020789.205 10 0 60628 54000.00000 0 -3887540.351 11077020.099 -22595421.106 10 0 60628 54900.00000 0 -6599193.188 11529436.135 -21728924.975 10 0 60628 55800.00000 0 -9139702.991 12151393.085 -20438454.525 10 0 60628 56700.00000 0 -11450538.810 12907225.665 -18749444.161 10 0 60628 57600.00000 0 -13482029.151 13752153.968 -16695087.538 10 0 60628 58500.00000 0 -15195182.026 14634253.503 -14315664.107 10 0 60628 59400.00000 0 -16563056.294 15496740.462 -11657728.705 10 0 60628 60300.00000 0 -17571629.512 16280473.790 -8773181.846 10 0 60628 61200.00000 0 -18220129.165 16926566.875 -5718240.624 10 0 60628 62100.00000 0 -18520817.035 17378997.797 -2552331.761 10 0 60628 63000.00000 0 -18498239.514 17587107.839 663070.538 10 0 60628 63900.00000 0 -18187978.888 17507883.461 3865638.559 10 0 60628 64800.00000 0 -17634961.162 17107926.740 6993393.546 10 0 60628 65700.00000 0 -16891393.841 16365032.951 9985893.693 10 0 60628 66600.00000 0 -16014421.799 15269310.762 12785385.563 10 0 60628 67500.00000 0 -15063600.120 13823799.789 15337898.138 10 0 60628 68400.00000 0 -14098289.508 12044561.029 17594260.298 10 0 60628 69300.00000 0 -13175082.192 9960237.226 19511024.265 10 0 60628 70200.00000 0 -12345364.259 7611101.583 21051279.634 10 0 60628 71100.00000 0 -11653114.205 5047633.628 22185344.604 10 0 60628 72000.00000 0 -11133027.591 2328679.786 22891323.150 10 0 60628 72900.00000 0 -10809044.212 -480727.397 23155519.051 10 0 60628 73800.00000 0 -10693338.017 -3311804.033 22972699.773 10 0 60628 74700.00000 0 -10785811.407 -6094606.072 22346205.425 10 0 60628 75600.00000 0 -11074115.367 -8760672.936 21287900.189 10 0 60628 76500.00000 0 -11534195.798 -11245617.202 19817965.876 10 0 60628 77400.00000 0 -12131345.148 -13491555.402 17964539.725 10 0 60628 78300.00000 0 -12821717.720 -15449280.831 15763200.972 10 0 60628 79200.00000 0 -13554247.830 -17080088.820 13256313.427 10 0 60628 80100.00000 0 -14272892.725 -18357178.338 10492233.987 10 0 60628 81000.00000 0 -14919108.021 -19266570.437 7524399.850 10 0 60628 81900.00000 0 -15434452.682 -19807503.523 4410309.955 10 0 60628 82800.00000 0 -15763213.991 -19992286.837 1210418.899 10 0 60628 83700.00000 0 -15854940.937 -19845616.191 -2013035.962 10 0 60628 84600.00000 0 -15666777.207 -19403378.920 -5197251.460 10 0 60628 85500.00000 0 -15165492.486 -18710996.995 -8280095.065 10 0 60629 0.00000 0 -14329122.988 -17821377.719 -11201335.081 10 0 60629 900.00000 0 -13148147.741 -16792558.203 -13903840.163 10 0 60629 1800.00000 0 -11626148.571 -15685145.372 -16334718.544 10 0 60629 2700.00000 0 -9779921.193 -14559659.851 -18446377.577 10 0 60629 3600.00000 0 -7639031.172 -13473899.280 -20197476.635 10 0 60629 4500.00000 0 -5244831.227 -12480434.461 -21553754.339 10 0 60629 5400.00000 0 -2648980.342 -11624346.467 -22488712.071 10 0 60629 6300.00000 0 88473.294 -10941302.227 -22984139.379 10 0 60629 7200.00000 0 2901364.505 -10456051.132 -23030470.455 10 0 60629 8100.00000 0 5719942.268 -10181406.693 -22626964.774 10 0 60629 9000.00000 0 8473552.584 -10117755.921 -21781708.928 10 0 60629 9900.00000 0 11093359.594 -10253116.028 -20511440.597 10 0 60629 10800.00000 0 13514990.301 -10563734.239 -18841199.512 10 0 60629 11700.00000 0 15680991.986 -11015203.027 -16803813.850 10 0 60629 12600.00000 0 17542999.937 -11564041.046 -14439233.931 10 0 60629 13500.00000 0 19063526.010 -12159670.259 -11793728.156 10 0 60629 14400.00000 0 20217295.188 -12746703.262 -8918958.727 10 0 60629 15300.00000 0 20992076.848 -13267442.079 -5870956.941 10 0 60629 16200.00000 0 21388979.165 -13664481.399 -2709019.548 10 0 60629 17100.00000 0 21422197.859 -13883305.553 505451.229 10 0 60629 18000.00000 0 21118233.317 -13874769.608 3710140.674 10 0 60629 18900.00000 0 20514612.251 -13597360.578 6843024.176 10 0 60629 19800.00000 0 19658170.163 -13019144.736 9843556.505 10 0 60629 20700.00000 0 18602968.597 -12119320.641 12653825.575 10 0 60629 21600.00000 0 17407935.489 -10889314.322 15219649.821 10 0 60629 22500.00000 0 16134327.463 -9333372.162 17491599.912 10 0 60629 23400.00000 0 14843119.445 -7468627.722 19425927.242 10 0 60629 24300.00000 0 13592429.130 -5324640.078 20985383.684 10 0 60629 25200.00000 0 12435081.718 -2942422.488 22139919.124 10 0 60629 26100.00000 0 11416414.285 -373000.468 22867245.443 10 0 60629 27000.00000 0 10572409.059 2324442.902 23153257.695 10 0 60629 27900.00000 0 9928231.605 5084760.384 22992305.460 10 0 60629 28800.00000 0 9497233.621 7839284.975 22387309.412 10 0 60629 29700.00000 0 9280461.501 10518427.487 21349720.459 10 0 60629 30600.00000 0 9266691.592 13054322.942 19899320.979 10 0 60629 31500.00000 0 9432991.914 15383418.895 18063870.125 10 0 60629 32400.00000 0 9745788.699 17448900.355 15878597.645 10 0 60629 33300.00000 0 10162395.354 19202851.777 13385553.283 10 0 60629 34200.00000 0 10632942.028 20608066.327 10632821.564 10 0 60629 35100.00000 0 11102626.766 21639426.240 7673614.598 10 0 60629 36000.00000 0 11514195.014 22284795.118 4565258.282 10 0 60629 36900.00000 0 11810543.597 22545382.679 1368090.025 10 0 60629 37800.00000 0 11937338.969 22435564.394 -1855711.398 10 0 60629 38700.00000 0 11845537.770 21982161.290 -5043341.199 10 0 60629 39600.00000 0 11493700.843 21223208.413 -8132604.661 10 0 60629 40500.00000 0 10849999.811 20206262.588 -11063148.485 10 0 60629 41400.00000 0 9893827.857 18986320.410 -13777661.452 10 0 60629 42300.00000 0 8616942.929 17623434.737 -16223018.653 10 0 60629 43200.00000 0 7024091.602 16180131.459 -18351344.551 10 0 60629 44100.00000 0 5133084.230 14718737.374 -20120971.835 10 0 60629 45000.00000 0 2974315.888 13298734.071 -21497275.241 10 0 60629 45900.00000 0 589751.780 11974251.704 -22453362.473 10 0 60629 46800.00000 0 -1968580.932 10791810.287 -22970607.597 10 0 60629 47700.00000 0 -4640531.371 9788405.248 -23039015.948 10 0 60629 48600.00000 0 -7360111.271 8990018.663 -22657413.442 10 0 60629 49500.00000 0 -10058032.442 8410618.837 -21833457.134 10 0 60629 50400.00000 0 -12664387.857 8051689.426 -20583467.807 10 0 60629 51300.00000 0 -15111363.033 7902306.203 -18932089.245 10 0 60629 52200.00000 0 -17335863.559 7939755.777 -16911782.467 10 0 60629 53100.00000 0 -19281948.646 8130667.298 -14562166.655 10 0 60629 54000.00000 0 -20902969.453 8432606.336 -11929221.507 10 0 60629 54900.00000 0 -22163324.041 8796060.613 -9064368.471 10 0 60629 55800.00000 0 -23039757.529 9166731.082 -6023450.519 10 0 60629 56700.00000 0 -23522155.713 9488029.415 -2865631.864 10 0 60629 57600.00000 0 -23613802.022 9703675.015 347759.810 10 0 60629 58500.00000 0 -23331090.399 9760281.187 3554425.302 10 0 60629 59400.00000 0 -22702709.335 9609821.481 6692296.645 10 0 60629 60300.00000 0 -21768334.160 9211872.974 9700727.626 10 0 60629 61200.00000 0 -20576884.552 8535543.327 12521649.881 10 0 60629 62100.00000 0 -19184421.663 7561002.121 15100673.567 10 0 60629 63000.00000 0 -17651773.288 6280553.738 17388113.263 10 0 60629 63900.00000 0 -16041985.863 4699208.074 19339921.439 10 0 60629 64800.00000 0 -14417708.382 2834725.940 20918513.870 10 0 60629 65700.00000 0 -12838615.340 717137.189 22093473.446 10 0 60629 66600.00000 0 -11358973.745 -1612249.220 22842120.887 10 0 60629 67500.00000 0 -10025453.011 -4102303.810 23149943.086 10 0 60629 68400.00000 0 -8875266.604 -6693945.789 23010871.884 10 0 60629 69300.00000 0 -7934720.987 -9322348.392 22427408.279 10 0 60629 70200.00000 0 -7218231.166 -11919392.315 21410589.267 10 0 60629 71100.00000 0 -6727843.507 -14416268.959 19979796.764 10 0 60629 72000.00000 0 -6453286.302 -16746128.543 18162410.442 10 0 60629 72900.00000 0 -6372547.186 -18846665.620 15993308.818 10 0 60629 73800.00000 0 -6452955.080 -20662536.179 13514225.513 10 0 60629 74700.00000 0 -6652723.389 -22147506.294 10772970.359 10 0 60629 75600.00000 0 -6922891.672 -23266242.349 7822527.856 10 0 60629 76500.00000 0 -7209585.794 -23995666.766 4720048.177 10 0 60629 77400.00000 0 -7456502.289 -24325820.412 1525748.775 10 0 60629 78300.00000 0 -7607512.270 -24260193.097 -1698252.989 10 0 60629 79200.00000 0 -7609273.989 -23815505.678 -4889153.562 10 0 60629 80100.00000 0 -7413741.790 -23020950.584 -7984698.905 10 0 60629 81000.00000 0 -6980462.650 -21916920.905 -10924416.709 10 0 60629 81900.00000 0 -6278559.855 -20553280.472 -13650819.191 10 0 60629 82800.00000 0 -5288316.348 -18987247.613 -16110550.680 10 0 60629 83700.00000 0 -4002287.183 -17280982.380 -18255455.198 10 0 60629 84600.00000 0 -2425890.828 -15498980.247 -20043540.891 10 0 60629 85500.00000 0 -577451.652 -13705383.980 -21439820.370 10 0 60630 0.00000 0 1512309.974 -11961329.109 -22417008.882 10 0 60630 900.00000 0 3801320.798 -10322435.819 -22956065.979 10 0 60630 1800.00000 0 6237684.629 -8836556.804 -23046568.306 10 0 60630 2700.00000 0 8761638.168 -7541873.711 -22686907.994 10 0 60630 3600.00000 0 11307847.029 -6465424.791 -21884311.870 10 0 60630 4500.00000 0 13807945.477 -5622124.093 -20654682.699 10 0 60630 5400.00000 0 16193212.055 -5014312.042 -19022266.789 10 0 60630 6300.00000 0 18397267.946 -4631853.966 -17019156.086 10 0 60630 7200.00000 0 20358684.430 -4452779.488 -14684636.303 10 0 60630 8100.00000 0 22023390.210 -4444432.517 -12064395.717 10 0 60630 9000.00000 0 23346778.488 -4565079.950 -9209611.921 10 0 60630 9900.00000 0 24295426.939 -4765908.016 -6175936.125 10 0 60630 10800.00000 0 24848360.639 -4993319.213 -3022396.329 10 0 60630 11700.00000 0 24997807.690 -5191430.780 189758.132 10 0 60630 12600.00000 0 24749418.847 -5304667.866 3398247.371 10 0 60630 13500.00000 0 24121945.026 -5280341.467 6540963.691 10 0 60630 14400.00000 0 23146389.042 -5071102.684 9557163.241 10 0 60630 15300.00000 0 21864669.484 -4637170.812 12388624.317 10 0 60630 16200.00000 0 20327854.296 -3948242.870 14980751.265 10 0 60630 17100.00000 0 18594038.713 -2985005.890 17283604.533 10 0 60630 18000.00000 0 16725956.055 -1740189.949 19252839.108 10 0 60630 18900.00000 0 14788420.000 -219118.910 20850535.615 10 0 60630 19800.00000 0 12845703.115 1560263.770 22045910.408 10 0 60630 20700.00000 0 10958958.419 3567895.614 22815893.067 10 0 60630 21600.00000 0 9183788.606 5762602.505 23145561.893 10 0 60630 22500.00000 0 7568061.317 8093573.127 23028430.147 10 0 60630 23400.00000 0 6150059.037 10502241.952 22466577.893 10 0 60630 24300.00000 0 4957038.772 12924505.911 21470626.579 10 0 60630 25200.00000 0 4004260.451 15293186.159 20059555.657 10 0 60630 26100.00000 0 3294524.373 17540635.985 18260363.012 10 0 60630 27000.00000 0 2818237.651 19601389.277 16107573.364 10 0 60630 27900.00000 0 2554008.163 21414741.456 13642601.435 10 0 60630 28800.00000 0 2469742.929 22927156.371 10912979.448 10 0 60630 29700.00000 0 2524206.756 24094398.799 7971461.262 10 0 60630 30600.00000 0 2668977.360 24883302.426 4875018.261 10 0 60630 31500.00000 0 2850715.942 25273097.393 1683744.876 10 0 60630 32400.00000 0 3013657.965 25256239.274 -1540305.925 10 0 60630 33300.00000 0 3102218.594 24838701.845 -4734334.660 10 0 60630 34200.00000 0 3063601.326 24039718.584 -7836030.567 10 0 60630 35100.00000 0 2850297.272 22890981.347 -10784804.626 10 0 60630 36000.00000 0 2422366.379 21435328.212 -13522994.442 10 0 60630 36900.00000 0 1749400.700 19724974.760 -15997015.168 10 0 60630 37800.00000 0 812083.089 17819363.233 -18158431.615 10 0 60630 38700.00000 0 -396727.949 15782720.832 -19964928.281 10 0 60630 39600.00000 0 -1871436.058 13681431.346 -21381156.263 10 0 60630 40500.00000 0 -3593693.505 11581332.489 -22379438.835 10 0 60630 41400.00000 0 -5532938.436 9545054.490 -22940320.769 10 0 60630 42300.00000 0 -7647460.969 7629513.509 -23052950.067 10 0 60630 43200.00000 0 -9885953.207 5883666.426 -22715284.608 10 0 60630 44100.00000 0 -12189477.333 4346621.791 -21934120.198 10 0 60630 45000.00000 0 -14493767.954 3046185.962 -20724940.419 10 0 60630 45900.00000 0 -16731770.737 1997904.247 -19111592.566 10 0 60630 46800.00000 0 -18836309.551 1204635.202 -17125797.626 10 0 60630 47700.00000 0 -20742769.193 656673.163 -14806505.671 10 0 60630 48600.00000 0 -22391680.718 332410.476 -12199111.143 10 0 60630 49500.00000 0 -23731101.038 199507.921 -9354545.224 10 0 60630 50400.00000 0 -24718687.784 216520.404 -6328264.722 10 0 60630 51300.00000 0 -25323383.961 334906.101 -3179158.750 10 0 60630 52200.00000 0 -25526643.813 501331.536 31604.377 10 0 60630 53100.00000 0 -25323151.090 660173.378 3241766.743 10 0 60630 54000.00000 0 -24721002.347 756110.216 6389183.549 10 0 60630 54900.00000 0 -23741350.352 736694.763 9413015.878 10 0 60630 55800.00000 0 -22417524.925 554798.560 12254891.175 10 0 60630 56700.00000 0 -20793669.844 170827.371 14860010.325 10 0 60630 57600.00000 0 -18922953.822 -445384.385 17178181.786 10 0 60630 58500.00000 0 -16865430.447 -1313078.143 19164764.931 10 0 60630 59400.00000 0 -14685635.529 -2439535.963 20781506.766 10 0 60630 60300.00000 0 -12450020.300 -3819548.013 21997258.238 10 0 60630 61200.00000 0 -10224325.004 -5435404.862 22788558.484 10 0 60630 62100.00000 0 -8070999.270 -7257415.597 23140077.480 10 0 60630 63000.00000 0 -6046773.584 -9244931.762 23044909.734 10 0 60630 63900.00000 0 -4200479.989 -11347836.896 22504713.807 10 0 60630 64800.00000 0 -2571210.290 -13508442.701 21529694.643 10 0 60630 65700.00000 0 -1186886.685 -15663716.364 20138427.944 10 0 60630 66600.00000 0 -63303.526 -17747749.773 18357528.191 10 0 60630 67500.00000 0 796319.840 -19694370.903 16221164.391 10 0 60630 68400.00000 0 1401255.659 -21439791.076 13770430.186 10 0 60630 69300.00000 0 1772655.869 -22925179.186 11052577.765 10 0 60630 70200.00000 0 1942435.605 -24099055.903 8120127.740 10 0 60630 71100.00000 0 1951697.217 -24919407.127 5029869.965 10 0 60630 72000.00000 0 1848759.629 -25355426.552 1841773.032 10 0 60630 72900.00000 0 1686875.151 -25388811.871 -1382177.318 10 0 60630 73800.00000 0 1521730.038 -25014557.238 -4579188.486 10 0 60630 74700.00000 0 1408835.168 -24241205.608 -7686895.742 10 0 60630 75600.00000 0 1400918.911 -23090547.424 -10644596.027 10 0 60630 76500.00000 0 1545434.999 -21596775.910 -13394454.886 10 0 60630 77400.00000 0 1882293.944 -19805132.882 -15882660.682 10 0 60630 78300.00000 0 2441917.367 -17770101.254 -18060501.162 10 0 60630 79200.00000 0 3243700.926 -15553220.354 -19885339.036 10 0 60630 80100.00000 0 4294953.886 -13220616.809 -21321465.370 10 0 60630 81000.00000 0 5590362.659 -10840356.176 -22340812.458 10 0 60630 81900.00000 0 7112002.756 -8479728.263 -22923511.100 10 0 60630 82800.00000 0 8829899.659 -6202581.846 -23058280.715 10 0 60630 83700.00000 0 10703115.160 -4066821.982 -22742644.686 10 0 60630 84600.00000 0 12681312.947 -2122175.712 -21982967.159 10 0 60630 85500.00000 0 14706736.504 -408319.918 -20794311.550 10 0 60631 0.00000 0 16716514.594 1046550.854 -19200124.992 10 0 60631 900.00000 0 18645197.031 2226659.025 -17231755.584 10 0 60631 1800.00000 0 20427410.158 3129042.488 -14927815.902 10 0 60631 2700.00000 0 22000523.108 3763406.067 -12333404.236 10 0 60631 3600.00000 0 23307209.723 4151433.858 -9499202.675 10 0 60631 4500.00000 0 24297799.830 4325596.011 -6480470.630 10 0 60631 5400.00000 0 24932321.857 4327503.750 -3335955.053 10 0 60631 6300.00000 0 25182152.609 4205885.183 -126739.790 10 0 60631 7200.00000 0 25031207.017 4014269.846 3084942.717 10 0 60631 8100.00000 0 24476620.376 3808481.383 6236914.009 10 0 60631 9000.00000 0 23528896.996 3644044.918 9268243.364 10 0 60631 9900.00000 0 22211521.360 3573618.380 12120410.347 10 0 60631 10800.00000 0 20560049.982 3644555.154 14738415.003 10 0 60631 11700.00000 0 18620723.167 3896699.235 17071816.030 10 0 60631 12600.00000 0 16448655.033 4360503.891 19075679.000 10 0 60631 13500.00000 0 14105676.778 5055551.114 20711418.682 10 0 60631 14400.00000 0 11657921.568 5989532.580 21947521.592 10 0 60631 15300.00000 0 9173249.357 7157734.000 22760136.974 10 0 60631 16200.00000 0 6718615.904 8543044.419 23133526.593 10 0 60631 17100.00000 0 4357492.148 10116491.049 23060365.884 10 0 60631 18000.00000 0 2147438.068 11838279.085 22541891.116 10 0 60631 18900.00000 0 137929.005 13659295.771 21587889.484 10 0 60631 19800.00000 0 -1631477.475 15523019.141 20216531.230 10 0 60631 20700.00000 0 -3132559.303 17367755.239 18454045.311 10 0 60631 21600.00000 0 -4349373.788 19129113.734 16334242.527 10 0 60631 22500.00000 0 -5278687.980 20742621.460 13897892.654 10 0 60631 23400.00000 0 -5929876.484 22146366.657 11191964.841 10 0 60631 24300.00000 0 -6324289.491 23283564.344 8268743.297 10 0 60631 25200.00000 0 -6494115.759 24104935.339 5184833.119 10 0 60631 26100.00000 0 -6480786.687 24570797.921 2000073.828 10 0 60631 27000.00000 0 -6332987.420 24652782.216 -1223619.246 10 0 60631 27900.00000 0 -6104358.302 24335092.377 -4423463.437 10 0 60631 28800.00000 0 -5850983.987 23615260.221 -7537042.902 10 0 60631 29700.00000 0 -5628777.511 22504355.360 -10503543.124 10 0 60631 30600.00000 0 -5490871.964 21026639.983 -13264959.836 10 0 60631 31500.00000 0 -5485132.809 19218680.506 -15767256.486 10 0 60631 32400.00000 0 -5651899.220 17127951.917 -17961445.256 10 0 60631 33300.00000 0 -6022053.242 14810992.854 -19804568.188 10 0 60631 34200.00000 0 -6615501.507 12331189.210 -21260557.088 10 0 60631 35100.00000 0 -7440136.323 9756280.265 -22300953.736 10 0 60631 36000.00000 0 -8491322.022 7155693.423 -22905475.108 10 0 60631 36900.00000 0 -9751929.459 4597820.963 -23062411.914 10 0 60631 37800.00000 0 -11192917.609 2147354.453 -22768852.588 10 0 60631 38700.00000 0 -12774437.400 -137210.440 -22030728.849 10 0 60631 39600.00000 0 -14447410.269 -2205793.742 -20862682.819 10 0 60631 40500.00000 0 -16155513.518 -4018582.966 -19287759.679 10 0 60631 41400.00000 0 -17837487.275 -5547440.620 -17336933.410 10 0 60631 42300.00000 0 -19429664.279 -6776810.522 -15048476.746 10 0 60631 43200.00000 0 -20868614.692 -7704087.871 -12467189.491 10 0 60631 44100.00000 0 -22093793.727 -8339441.028 -9643502.140 10 0 60631 45000.00000 0 -23050080.343 -8705096.318 -6632474.078 10 0 60631 45900.00000 0 -23690100.570 -8834119.811 -3492707.398 10 0 60631 46800.00000 0 -23976238.791 -8768750.980 -285198.735 10 0 60631 47700.00000 0 -23882253.995 -8558361.500 2927847.722 10 0 60631 48600.00000 0 -23394435.165 -8257127.515 6084222.637 10 0 60631 49500.00000 0 -22512249.544 -7921514.904 9122906.247 10 0 60631 50400.00000 0 -21248458.821 -7607683.994 11985232.936 10 0 60631 51300.00000 0 -19628700.294 -7368922.603 14616004.476 10 0 60631 52200.00000 0 -17690551.897 -7253214.293 16964532.162 10 0 60631 53100.00000 0 -15482120.760 -7301042.409 18985589.830 10 0 60631 54000.00000 0 -13060213.960 -7543520.275 20640261.714 10 0 60631 54900.00000 0 -10488166.406 -8000924.191 21896671.176 10 0 60631 55800.00000 0 -7833414.293 -8681689.345 22730578.387 10 0 60631 56700.00000 0 -5164912.187 -9581909.991 23125837.261 10 0 60631 57600.00000 0 -2550497.871 -10685364.949 23074704.064 10 0 60631 58500.00000 0 -54311.048 -11964068.447 22577992.268 10 0 60631 59400.00000 0 2265630.111 -13379325.258 21645070.428 10 0 60631 60300.00000 0 4359596.617 -14883248.765 20293702.105 10 0 60631 61200.00000 0 6187972.361 -16420681.649 18549729.177 10 0 60631 62100.00000 0 7722659.118 -17931442.196 16446602.388 10 0 60631 63000.00000 0 8948004.513 -19352805.302 14024765.497 10 0 60631 63900.00000 0 9861213.556 -20622116.722 11330902.177 10 0 60631 64800.00000 0 10472225.256 -21679432.577 8417057.547 10 0 60631 65700.00000 0 10803057.789 -22470073.881 5339649.034 10 0 60631 66600.00000 0 10886647.919 -22946988.117 2158384.033 10 0 60631 67500.00000 0 10765231.941 -23072816.888 -1064895.660 10 0 60631 68400.00000 0 10488335.358 -22821580.003 -4267420.432 10 0 60631 69300.00000 0 10110455.804 -22179901.884 -7386726.352 10 0 60631 70200.00000 0 9688537.690 -21147725.151 -10361890.329 10 0 60631 71100.00000 0 9279346.758 -19738477.949 -13134740.967 10 0 60631 72000.00000 0 8936857.800 -17978685.036 -15651019.237 10 0 60631 72900.00000 0 8709768.800 -15907036.761 -17861463.894 10 0 60631 73800.00000 0 8639249.662 -13572953.713 -19722798.100 10 0 60631 74700.00000 0 8757023.746 -11034706.885 -21198595.802 10 0 60631 75600.00000 0 9083865.971 -8357172.664 -22260009.218 10 0 60631 76500.00000 0 9628583.085 -5609317.780 -22886342.010 10 0 60631 77400.00000 0 10387520.519 -2861521.072 -23065456.227 10 0 60631 78300.00000 0 11344617.229 -182845.725 -22794005.004 10 0 60631 79200.00000 0 12472005.955 2361622.582 -22077486.893 10 0 60631 80100.00000 0 13731132.640 4713259.370 -20930121.665 10 0 60631 81000.00000 0 15074346.314 6822102.875 -19374551.346 10 0 60631 81900.00000 0 16446890.569 8648681.987 -17441373.883 10 0 60631 82800.00000 0 17789210.795 10165395.661 -15168520.385 10 0 60631 83700.00000 0 19039478.109 11357388.477 -12600489.986 10 0 60631 84600.00000 0 20136222.239 12222888.791 -9787459.121 10 0 60631 85500.00000 0 21020961.499 12772998.942 -6784284.406 99